Home   Weather   Kitakyushu   Past weeks
Flag for Japan

Past Weather in Kitakyushu, Japan — Yesterday and Last 2 Weeks

Now
77 °F

Rain showers. Fog.


Feels Like: 78 °F
Forecast: 85 / 77 °F
Wind: 3 mph from North

Location: Kitakyushu Airport

Current Time: Jul 21, 2019 at 10:24:21 pm

Latest Report: Jul 21, 2019 at 9:37 pm


Visibility: 3 mi

Pressure: 29.80 "Hg

Humidity: 100%

Dew Point: 77 °F

Location of KitakyushuLocation

Past Weather in Kitakyushu — Graph

°F

Kitakyushu Temperature Yesterday

Maximum temperature yesterday: 81 °F (at 12:00 pm)
Minimum temperature yesterday: 77 °F (at 12:20 am)
Average temperature yesterday: 78 °F

High & Low Weather Summary for the Past Weeks

 TemperatureHumidityPressure
High84 °F (Jul 15, 1:00 pm)100% (Jul 20, 8:44 pm)29.89 "Hg (Jul 20, 8:44 pm)
Low68 °F (Jul 13, 2:41 pm)51% (Jul 15, 1:00 pm)29.50 "Hg (Jul 13, 5:00 pm)
Average76 °F81%29.71 "Hg
* Reported Jul 6 9:00 pm — Jul 21 9:00 pm, Kitakyushu. Weather by CustomWeather, © 2019

Note: Actual official high and low records may vary slightly from our data, if they occured in-between our weather recording intervals... More about our weather records

Advertising

Kitakyushu Weather History for the Previous 24 Hours

Scroll right to see more
 ConditionsComfort  
Time TempWeatherWind HumidityBarometerVisibility
9:00 pm
Sun, Jul 21
77 °FRain showers. Fog.3 mph100%29.80 "Hg2 mi
8:14 pm77 °FRain showers. Partly cloudy.3 mph100%29.80 "Hg4 mi
8:00 pm77 °FSprinkles. Partly cloudy.2 mph100%29.80 "Hg4 mi
7:23 pm79 °FRain showers. Broken clouds.2 mph94%29.77 "Hg3 mi
7:00 pm79 °FSprinkles. Broken clouds.No wind94%29.77 "Hg5 mi
6:00 pm79 °FBroken clouds.2 mph94%29.74 "HgN/A
5:00 pm81 °FBroken clouds.2 mph89%29.77 "HgN/A
4:00 pm81 °FBroken clouds.3 mph89%29.77 "HgN/A
3:05 pm79 °FSprinkles. Partly sunny.3 mph94%29.77 "Hg5 mi
3:00 pm77 °FRain showers. Fog.3 mph100%29.77 "Hg2 mi
2:00 pm77 °FSprinkles. Fog.6 mph100%29.77 "Hg3 mi
1:47 pm77 °FSprinkles. Broken clouds.7 mph100%29.77 "Hg4 mi
1:38 pm77 °FRain showers. Fog.7 mph100%29.77 "Hg3 mi
1:00 pm77 °FRain showers. Broken clouds.1 mph100%29.77 "Hg5 mi
12:22 pm79 °FRain showers. Broken clouds.2 mph94%29.77 "Hg4 mi
12:00 pm77 °FBroken clouds.3 mph100%29.77 "HgN/A
11:00 am77 °FSprinkles. Partly sunny.7 mph94%29.77 "HgN/A
10:17 am77 °FSprinkles. Broken clouds.7 mph94%29.77 "HgN/A
9:45 am75 °FRain showers. Fog.10 mph100%29.77 "Hg3 mi
9:00 am75 °FRain showers. Fog.9 mph100%29.80 "Hg3 mi
8:29 am75 °FRain showers. Fog.9 mph100%29.77 "Hg3 mi
8:00 am75 °FRain showers. Broken clouds.6 mph94%29.77 "HgN/A
7:47 am75 °FRain showers. Partly sunny.10 mph100%29.77 "Hg3 mi
7:30 am75 °FRain showers. Partly sunny.12 mph94%29.77 "Hg3 mi
7:00 am75 °FRain showers. Broken clouds.15 mph94%29.74 "HgN/A
6:16 am77 °FRain showers. Partly sunny.12 mph100%29.77 "Hg3 mi
6:00 am77 °FSprinkles. Broken clouds.8 mph100%29.77 "Hg4 mi
5:18 am77 °FRain showers. Passing clouds.10 mph100%29.74 "Hg3 mi
4:40 am77 °FRain showers. Passing clouds.14 mph94%29.74 "Hg3 mi
4:24 am77 °FLots of rain. Passing clouds.16 mph94%29.74 "Hg2 mi
4:00 am77 °FRain showers. Passing clouds.12 mph94%29.74 "Hg5 mi
3:42 am77 °FRain showers. Partly cloudy.7 mph100%29.74 "Hg3 mi
3:29 am77 °FLots of rain. Passing clouds.12 mph100%29.74 "Hg2 mi
3:00 am77 °FRain showers. Partly cloudy.9 mph94%29.74 "Hg4 mi
2:40 am77 °FRain showers. Passing clouds.10 mph100%29.74 "Hg4 mi
2:22 am77 °FSprinkles. Partly cloudy.10 mph94%29.71 "HgN/A
2:00 am77 °FRain showers. Passing clouds.10 mph94%29.71 "Hg5 mi
1:27 am77 °FRain showers. Passing clouds.7 mph94%29.74 "Hg4 mi
1:00 am77 °FSprinkles. Partly cloudy.12 mph94%29.71 "HgN/A
12:00 am77 °FPartly cloudy.10 mph94%29.74 "HgN/A
11:00 pm
Sat, Jul 20
77 °FSprinkles. Passing clouds.13 mph100%29.74 "HgN/A
10:34 pm77 °FSprinkles. Partly cloudy.13 mph94%29.74 "HgN/A
10:18 pm77 °FRain showers. Partly cloudy.10 mph100%29.74 "HgN/A
Weather by CustomWeather, © 2019

See weather overview